User: anonymous   Login
Location: Unspecified
(0.0000°N, 0.0000°E)
Time: 10:06:49
(UTC+00:00)
Language:

SHIYUAN - Orbit

View from above orbital plane
View from above orbital plane
View from above satellite
View from above satellite

Ground track
Ground track

The orbit is defined by the following mean orbital elements,

1 37931U          26145.02615561 +.00000000 +00000-0 +66235-4 0 00006
2 37931  98.6959 164.0250 0022286 211.3081 203.3507 14.31118297    02
Epoch (UTC): 25 May 2026 00:37:39
Eccentricity: 0.0022286
inclination: 98.6959°
perigee height: 772 km
apogee height: 804 km
right ascension of ascending node: 164.0250°
argument of perigee: 211.3081°
revolutions per day: 14.31118297
mean anomaly at epoch: 203.3507°

The dashed part of the orbit path shows where the satellite is in the earth's shadow,  

DLR